|   |  | Asteroid 2013 LE7
					
					
					
					
						
					
					
						
							(Preview) 
						
							
								Orbital elements:
2013 LE7                                                 Earth MOID = 0.0330 AU
Epoch 2013 Apr. 18.0 TT = JDT 2456400.5                 MPC
M 334.67349              (2000.0)            P               Q
n   0.78816470     Peri.   32.54052     -0.51864024     +0.85488413
a   1.1607127      Node   206.22596     -0.79088595     -0.48574292
e   0.1039462      Incl.    1.76578     -0.32482566     -0.18228258
P   1.25           H   27.1           G   0...                 | Blobrana | 1 |  |  | 
		
			
			
				
				
					|   |  | Asteroid 2013 WR45
					
					
					
					
						
					
					
						
							(Preview) 
						
							
								The 18 - 40 metre wide asteroid 2013 WR45 will make a close pass (17.4 lunar distances, 0.0446 AU), travelling at 6.06 km/second, to the Earth-Moon system on the 20th December, 2013 @ 03:17 UT ±00:01.   See more  The Lunar Distance (LD), the distance between Earth and the Moon, equals 384,401 km, (or 0.0...  | Blobrana | 3 |  |  | 
		
			
			
				
				
					|   |  | Asteroid (267223) 2001 DQ8
					
					
					
					
						
					
					
						
							(Preview) 
						
							
								The 670 - 1500 metre wide asteroid 2001 DQ8 will make a close pass (74.3 lunar distances, 0.1910 AU), travelling at 33.90 km/second, to the Earth-Moon system on the 30th April, 2013 @ 21:50 UT ±00:01.  See more The Lunar Distance (LD), the distance between Earth and the Moon, equals 384,401 km, (or 0.0...  | Blobrana | 1 |  |  | 
		
			
			
				
				
					|   |  | Asteroid 2013 US3
					
					
					
					
						
					
					
						
							(Preview) 
						
							
								The 160 - 360 metre wide asteroid 2013 US3 will make a close pass (10.0 lunar distances, 0.02590 AU), travelling at 7.69 km/second, to the Earth on the 29th April 2018 @ 10:29 UT ±00:01. See more The Lunar Distance (LD), the distance between Earth and the Moon, equals 384,401 km, (or 0.00256 AU). | Blobrana | 0 |  |  | 
		
			
			
				
				
					|   |  | Asteroid (42355) Typhon
					
					
					
					
						
					
					
						
							(Preview) 
						
							
								Asteroid (42355) Typhon 2002 CR46 is a scattered disc object that was discovered on February 5, 2002, by the NEAT program. It measures 134±13 km in diameter, and is named after Typhon, a monster in Greek mythology.   Read more | Blobrana | 1 |  |  | 
		
			
			
				
				
					|   |  | Asteroid 2013 GF84
					
					
					
					
						
					
					
						
							(Preview) 
						
							
								Orbital elements:
2013 GF84                                                Earth MOID = 0.0691 AU
Epoch 2013 Apr. 18.0 TT = JDT 2456400.5                 MPC
M  50.48698              (2000.0)            P               Q
n   0.78725174     Peri.  118.66607     -0.81095381     -0.57223928
a   1.1616099      Node    26.98594     +0.39734869     -0.69172128
e   0.1275473      Incl.   15.60281     +0.42949730     -0.44052682
P   1.25           H   24.8           G...                    | Blobrana | 2 |  |  | 
		
			
			
				
				
					|   |  | Asteroid (5261) Eureka
					
					
					
					
						
					
					
						
							(Preview) 
						
							
								Asteroid (5261) Eureka makes its closest approach to the Earth (0.642 AU) on the 25th December 2013 EphemerisDate    TT    R. A. (2000) Decl.     Delta      r     Elong.  Phase     Mag
2013 12 24    07 01 12.3 -05 54 32   0.6424  1.5660   148.0    19.4    17.1
2013 12 25    06 59 31.6 -06 16 24   0.6424  1.5668   148.3    19.3    17.1
2013 12 26    06 57 49.7 -0... | Blobrana | 1 |  |  | 
		
			
			
				
				
					|   |  | Asteroid 2013 GZ7
					
					
					
					
						
					
					
						
							(Preview) 
						
							
								Orbital elements:
2013 GZ7                                                 Earth MOID = 0.1380 AU
Epoch 2013 Apr. 18.0 TT = JDT 2456400.5                 MPC
M  11.78878              (2000.0)            P               Q
n   0.59082470     Peri.  165.78463     -0.99074489     +0.13132578
a   1.4065773      Node    21.85045     -0.13179908     -0.87026997
e   0.1920183      Incl.    5.29141     -0.03245855     -0.47474594
P   1.67           H   24.0           G   0....                    | Blobrana | 1 |  |  | 
		
			
			
				
				
					|   |  | Asteroid (350462) 1998 KG3
					
					
					
					
						
					
					
						
							(Preview) 
						
							
								The 95 - 210 metre wide asteroid 1998 KG3 will make a close pass (50.4 lunar distances, 0.1294 AU), travelling at 3.08 km/second, to the Earth-Moon system on the 29th March, 2013 @ 12:32 UT ±00:01.  See more The Lunar Distance (LD), the distance between Earth and the Moon, equals 384,401 km, (or 0.0025...  | Blobrana | 1 |  |  | 
		
			
			
				
				
					|   |  | Asteroid 2013 JX28
					
					
					
					
						
					
					
						
							(Preview) 
						
							
								Orbital elements:
2013 JX28                                                Earth MOID = 0.0679 AU
Epoch 2013 Apr. 18.0 TT = JDT 2456400.5                 MPC
M 122.18006              (2000.0)            P               Q
n   2.11537962     Peri.  354.83841     +0.81958373     -0.56026065
a   0.6010037      Node    40.01675     +0.53213066     +0.66669042
e   0.5636934      Incl.   10.75212     +0.21241345     +0.49156067
P   0.47           H   20.0...                               | Blobrana | 3 |  |  | 
		
			
			
				
				
					|   |  | Asteroid (433) Eros
					
					
					
					
						
					
					
						
							(Preview) 
						
							
								Asteroid (433) Eros will occult 7.8 mag star HD 118411 in the constellation Virgo at 11:59 UT, 12th December 2013 Read more | Blobrana | 5 |  |  | 
		
			
			
				
				
					|   |  | Asteroid 2013 ND15
					
					
					
					
						
					
					
						
							(Preview) 
						
							
								Orbital elements:
2013 ND15                                                Earth MOID = 0.0080 AU
Epoch 2013 Apr. 18.0 TT = JDT 2456400.5                 MPC
M  36.64866              (2000.0)            P               Q
n   1.60901291     Peri.   19.40432     -0.43004955     -0.89874796
a   0.7212675      Node    96.14405     +0.81652895     -0.42760398
e   0.6202148      Incl.    4.93293     +0.38514654     -0.09698940
P   0.61           H   23.9           G   0....                    | Blobrana | 5 |  |  | 
		
			
			
				
				
					|   |  | Asteroid 2013 J1
					
					
					
					
						
					
					
						
							(Preview) 
						
							
								Orbital elements:
2013 JE1                                                 Earth MOID = 0.1837 AU
Epoch 2013 Apr. 18.0 TT = JDT 2456400.5                 MPC
M 279.20734              (2000.0)            P               Q
n   0.62306623     Peri.  164.22840     +0.97909801     +0.19779366
a   1.3576253      Node   185.12723     -0.18901125     +0.97088123
e   0.4060560      Incl.   32.01607     +0.07511214     -0.13515659
P   1.58           H   19.1...                               | Blobrana | 6 |  |  | 
		
			
			
				
				
					|   |  | Asteroid 2013 YB
					
					
					
					
						
					
					
						
							(Preview) 
						
							
								The 1.5 - 3.0 metre wide asteroid 2013 YB made a close pass (0.07 lunar distances, 0.0002 AU), travelling at 10.52 km/second, to the Earth-Moon system on the 23rd December 2013 @ 12:51 UT ±00:01.  See more  The Lunar Distance (LD), the distance between Earth and the Moon, equals 384,401 km, (or 0.002...  | Blobrana | 1 |  |  | 
		
			
			
				
				
					|   |  | Asteroid (111) Ate
					
					
					
					
						
					
					
						
							(Preview) 
						
							
								Asteroid (111) Ate is at Opposition in the constellation Taurus at 20:30 UT, 25th November, 2013. Magnitude: 11.0 Distance to Earth: 1.421 AU Distance to Sun center: 2.403 AU | Blobrana | 2 |  |  |